| time (UTC) | temp C | wind direction | speed KPH | gust KPH | rain 1hr cm | rain 24hr cm | rain mn cm | humidity % | barometer mb |
| 20260906023022 | 28 | 155 | 0.0 | 0.0 | 0.00 | 0.00 | 0.00 | 34 | 1002.2 |
| 20260906021523 | 28 | 155 | 0.0 | 6.4 | 0.00 | 0.00 | 0.00 | 32 | 1002.0 |
| 20260906020022 | 28 | 159 | 3.2 | 8.0 | 0.00 | 0.00 | 0.00 | 31 | 1001.9 |
| 20260906014525 | 28 | 132 | 1.6 | 4.8 | 0.00 | 0.00 | 0.00 | 30 | 1001.6 |
| 20260906013021 | 29 | 151 | 1.6 | 4.8 | 0.00 | 0.00 | 0.00 | 29 | 1001.4 |
| 20260906011521 | 31 | 151 | 0.0 | 3.2 | 0.00 | 0.00 | 0.00 | 26 | 1001.4 |
| 20260906010020 | 31 | 173 | 1.6 | 6.4 | 0.00 | 0.00 | 0.00 | 24 | 1001.5 |
| 20260906004519 | 32 | 175 | 3.2 | 4.8 | 0.00 | 0.00 | 0.00 | 23 | 1001.5 |
| 20260906003020 | 32 | 143 | 3.2 | 8.0 | 0.00 | 0.00 | 0.00 | 23 | 1001.3 |
| 20260906001520 | 33 | 181 | 3.2 | 11.3 | 0.00 | 0.00 | 0.00 | 23 | 1001.3 |
| 20260906000019 | 32 | 212 | 4.8 | 12.9 | 0.00 | 0.00 | 0.00 | 23 | 1001.5 |
| 20260905234518 | 31 | 199 | 3.2 | 9.7 | 0.00 | 0.00 | 0.00 | 27 | 1001.7 |
| 20260905233017 | 31 | 205 | 11.3 | 17.7 | 0.00 | 0.00 | 0.00 | 27 | 1001.6 |
| 20260905231518 | 33 | 190 | 6.4 | 16.1 | 0.00 | 0.00 | 0.00 | 21 | 1001.5 |
| 20260905230017 | 33 | 139 | 1.6 | 11.3 | 0.00 | 0.00 | 0.00 | 21 | 1001.5 |
| 20260905224520 | 33 | 128 | 8.0 | 19.3 | 0.00 | 0.00 | 0.00 | 21 | 1001.4 |
| 20260905223016 | 33 | 135 | 4.8 | 11.3 | 0.00 | 0.00 | 0.00 | 21 | 1001.3 |
| 20260905221529 | 33 | 220 | 1.6 | 6.4 | 0.00 | 0.00 | 0.00 | 20 | 1001.4 |
| 20260905220014 | 33 | 159 | 3.2 | 11.3 | 0.00 | 0.00 | 0.00 | 20 | 1001.4 |
| 20260905214513 | 33 | 200 | 6.4 | 12.9 | 0.00 | 0.00 | 0.00 | 20 | 1001.5 |
| 20260905213012 | 33 | 202 | 8.0 | 16.1 | 0.00 | 0.00 | 0.00 | 20 | 1001.6 |
| 20260905211512 | 34 | 185 | 6.4 | 14.5 | 0.00 | 0.00 | 0.00 | 20 | 1001.6 |
| 20260905210010 | 33 | 33 | 4.8 | 16.1 | 0.00 | 0.00 | 0.00 | 20 | 1001.6 |
| 20260905204508 | 33 | 38 | 3.2 | 19.3 | 0.00 | 0.00 | 0.00 | 20 | 1002.0 |
| 20260905203007 | 34 | 184 | 8.0 | 20.9 | 0.00 | 0.00 | 0.00 | 19 | 1002.4 |
| 20260905201506 | 33 | 35 | 4.8 | 20.9 | 0.00 | 0.00 | 0.00 | 20 | 1002.6 |
| 20260905200004 | 33 | 197 | 4.8 | 19.3 | 0.00 | 0.00 | 0.00 | 20 | 1002.8 |
| 20260905194502 | 33 | 56 | 6.4 | 17.7 | 0.00 | 0.00 | 0.00 | 21 | 1002.8 |
| 20260905193003 | 32 | 41 | 3.2 | 12.9 | 0.00 | 0.00 | 0.00 | 22 | 1003.0 |
| 20260905191605 | 32 | 27 | 8.0 | 17.7 | 0.00 | 0.00 | 0.00 | 21 | 1003.2 |
| 20260905190122 | 33 | 22 | 8.0 | 17.7 | 0.00 | 0.00 | 0.00 | 21 | 1003.2 |
| 20260905184619 | 33 | 308 | 6.4 | 16.1 | 0.00 | 0.00 | 0.00 | 20 | 1003.4 |
| 20260905183057 | 33 | 342 | 11.3 | 22.5 | 0.00 | 0.00 | 0.00 | 21 | 1003.5 |
| 20260905181553 | 33 | 7 | 6.4 | 17.7 | 0.00 | 0.00 | 0.00 | 21 | 1003.6 |
| 20260905180052 | 32 | 45 | 8.0 | 14.5 | 0.00 | 0.00 | 0.00 | 19 | 1003.6 |
| 20260905174556 | 32 | 230 | 6.4 | 19.3 | 0.00 | 0.00 | 0.00 | 20 | 1003.8 |
| 20260905173048 | 31 | 323 | 8.0 | 14.5 | 0.00 | 0.00 | 0.00 | 22 | 1004.0 |
| 20260905171545 | 31 | 319 | 6.4 | 16.1 | 0.00 | 0.00 | 0.00 | 24 | 1004.1 |
| 20260905170040 | 29 | 318 | 1.6 | 11.3 | 0.00 | 0.00 | 0.00 | 30 | 1004.2 |
| 20260905164536 | 28 | 252 | 4.8 | 8.0 | 0.00 | 0.00 | 0.00 | 33 | 1004.6 |
| 20260905163032 | 26 | 82 | 3.2 | 11.3 | 0.00 | 0.00 | 0.00 | 38 | 1004.9 |
| 20260905161528 | 25 | 186 | 0.0 | 4.8 | 0.00 | 0.00 | 0.00 | 42 | 1004.9 |
| 20260905160023 | 23 | 176 | 6.4 | 11.3 | 0.00 | 0.00 | 0.00 | 43 | 1004.9 |
| 20260905154520 | 23 | 250 | 8.0 | 11.3 | 0.00 | 0.00 | 0.00 | 42 | 1005.0 |
| 20260905153018 | 22 | 222 | 6.4 | 9.7 | 0.00 | 0.00 | 0.00 | 45 | 1004.8 |
| 20260905151517 | 21 | 210 | 1.6 | 8.0 | 0.00 | 0.00 | 0.00 | 46 | 1004.9 |
| 20260905150016 | 21 | 217 | 3.2 | 8.0 | 0.00 | 0.00 | 0.00 | 46 | 1005.0 |
| 20260905144515 | 21 | 237 | 3.2 | 8.0 | 0.00 | 0.00 | 0.00 | 49 | 1005.0 |
| 20260905143021 | 21 | 311 | 3.2 | 6.4 | 0.00 | 0.00 | 0.00 | 55 | 1005.1 |
| 20260905141514 | 20 | 267 | 1.6 | 4.8 | 0.00 | 0.00 | 0.00 | 56 | 1005.2 |
| 20260905140013 | 19 | 351 | 0.0 | 4.8 | 0.00 | 0.00 | 0.00 | 57 | 1005.4 |
| 20260905134509 | 18 | 7 | 0.0 | 3.2 | 0.00 | 0.00 | 0.00 | 60 | 1005.3 |
| 20260905133010 | 17 | 1 | 1.6 | 6.4 | 0.00 | 0.00 | 0.00 | 60 | 1005.2 |
| 20260905131508 | 17 | 1 | 0.0 | 6.4 | 0.00 | 0.00 | 0.00 | 63 | 1005.1 |
| 20260905130004 | 17 | 351 | 6.4 | 9.7 | 0.00 | 0.00 | 0.00 | 69 | 1004.8 |
| 20260905124502 | 17 | 325 | 0.0 | 0.0 | 0.00 | 0.00 | 0.00 | 74 | 1004.6 |
| 20260905123109 | 17 | 325 | 0.0 | 0.0 | 0.00 | 0.00 | 0.00 | 72 | 1004.3 |
| 20260905121556 | 18 | 325 | 0.0 | 0.0 | 0.00 | 0.00 | 0.00 | 71 | 1004.2 |
| 20260905120053 | 18 | 325 | 0.0 | 1.6 | 0.00 | 0.00 | 0.00 | 71 | 1004.3 |
| 20260905114553 | 18 | 325 | 0.0 | 6.4 | 0.00 | 0.00 | 0.00 | 71 | 1004.3 |
| 20260905113100 | 18 | 321 | 3.2 | 6.4 | 0.00 | 0.00 | 0.00 | 70 | 1004.3 |
| 20260905111557 | 18 | 1 | 3.2 | 8.0 | 0.00 | 0.00 | 0.00 | 71 | 1004.3 |
| 20260905110050 | 18 | 324 | 0.0 | 0.0 | 0.00 | 0.00 | 0.00 | 70 | 1004.3 |
| 20260905104549 | 19 | 351 | 3.2 | 9.7 | 0.00 | 0.00 | 0.00 | 70 | 1004.4 |
| 20260905103047 | 19 | 11 | 4.8 | 11.3 | 0.00 | 0.00 | 0.00 | 69 | 1004.2 |
| 20260905101554 | 19 | 18 | 9.7 | 14.5 | 0.00 | 0.00 | 0.00 | 67 | 1004.2 |
| 20260905100043 | 20 | 351 | 9.7 | 17.7 | 0.00 | 0.00 | 0.00 | 66 | 1004.1 |
| 20260905094541 | 20 | 7 | 9.7 | 19.3 | 0.00 | 0.00 | 0.00 | 64 | 1004.2 |
| 20260905093040 | 20 | 17 | 9.7 | 19.3 | 0.00 | 0.00 | 0.00 | 62 | 1004.2 |
| 20260905091539 | 20 | 17 | 9.7 | 17.7 | 0.00 | 0.00 | 0.00 | 61 | 1004.1 |
| 20260905090037 | 20 | 22 | 11.3 | 19.3 | 0.00 | 0.00 | 0.00 | 59 | 1004.0 |
| 20260905084556 | 20 | 12 | 8.0 | 17.7 | 0.00 | 0.00 | 0.00 | 58 | 1004.0 |
| 20260905083030 | 20 | 7 | 6.4 | 11.3 | 0.00 | 0.00 | 0.00 | 56 | 1004.0 |
| 20260905081528 | 21 | 34 | 6.4 | 12.9 | 0.00 | 0.00 | 0.00 | 55 | 1004.1 |
| 20260905080025 | 21 | 347 | 4.8 | 9.7 | 0.00 | 0.00 | 0.00 | 54 | 1004.0 |
| 20260905074525 | 21 | 351 | 6.4 | 11.3 | 0.00 | 0.00 | 0.00 | 53 | 1003.9 |
| 20260905073023 | 21 | 24 | 4.8 | 11.3 | 0.00 | 0.00 | 0.00 | 53 | 1003.9 |
| 20260905071524 | 21 | 41 | 8.0 | 11.3 | 0.00 | 0.00 | 0.00 | 53 | 1003.9 |
| 20260905070019 | 21 | 5 | 4.8 | 8.0 | 0.00 | 0.00 | 0.00 | 51 | 1003.8 |
| 20260905064518 | 21 | 7 | 4.8 | 9.7 | 0.00 | 0.00 | 0.00 | 51 | 1003.7 |
| 20260905063015 | 21 | 25 | 3.2 | 6.4 | 0.00 | 0.00 | 0.00 | 49 | 1003.6 |
| 20260905061514 | 22 | 11 | 0.0 | 6.4 | 0.00 | 0.00 | 0.00 | 48 | 1003.4 |
| 20260905060010 | 22 | 9 | 8.0 | 11.3 | 0.00 | 0.00 | 0.00 | 46 | 1003.2 |
| 20260905054512 | 23 | 20 | 8.0 | 16.1 | 0.00 | 0.00 | 0.00 | 44 | 1003.1 |
| 20260905053009 | 23 | 41 | 11.3 | 19.3 | 0.00 | 0.00 | 0.00 | 42 | 1003.1 |
| 20260905051511 | 23 | 13 | 6.4 | 12.9 | 0.00 | 0.00 | 0.00 | 41 | 1003.1 |
| 20260905050007 | 24 | 18 | 6.4 | 12.9 | 0.00 | 0.00 | 0.00 | 40 | 1003.0 |
| 20260905044508 | 24 | 29 | 9.7 | 12.9 | 0.00 | 0.00 | 0.00 | 41 | 1002.9 |
| 20260905043007 | 24 | 30 | 8.0 | 12.9 | 0.00 | 0.00 | 0.00 | 40 | 1003.1 |
| 20260905041506 | 25 | 35 | 9.7 | 12.9 | 0.00 | 0.00 | 0.00 | 40 | 1002.9 |
| 20260905040005 | 25 | 26 | 8.0 | 12.9 | 0.00 | 0.00 | 0.00 | 39 | 1002.8 |
| 20260905034511 | 26 | 35 | 6.4 | 12.9 | 0.00 | 0.00 | 0.00 | 36 | 1002.8 |
| 20260905033005 | 27 | 55 | 4.8 | 6.4 | 0.00 | 0.00 | 0.00 | 35 | 1002.8 |
| 20260905031505 | 27 | 76 | 0.0 | 6.4 | 0.00 | 0.00 | 0.00 | 36 | 1002.8 |
| 20260905030013 | 26 | 154 | 3.2 | 12.9 | 0.00 | 0.00 | 0.00 | 36 | 1003.0 |
| 20260905024504 | 26 | 53 | 0.0 | 3.2 | 0.00 | 0.00 | 0.00 | 38 | 1002.9 |